GPS BIIR-16M

Last updated on Fri Dec 19 2025 00:02:37 GMT+0000 (Coordinated Universal Time)

1 29601U 06052A 25351.93181724 .00000075 00000+0 00000+0 0 9992 2 29601 54.9696 221.1922 0087698 87.4131 273.6858 2.00574024139770
UTC large
Height (km)
Speed (km/s)
/
Latitude / Longitude
Inclination (degrees)
Orbital Period (minutes)
Azimuth
Elevation
Range (km)
Doppler Factor

Next 0 passes for location: London (51.5072 / 0.1276)

Sorry there are no passes over London.